Time,TemperatureF,DewpointF,PressureIn,WindDirection,WindDirectionDegrees,WindSpeedMPH,WindSpeedGustMPH,Humidity,HourlyPrecipIn,Conditions,Clouds,dailyrainin,SoftwareType,DateUTC
2013-04-01 00:02:00,49.0,26.0,30.00,NNW,347,4.0,10.0,40,0.00,,,0.00,,2013-04-01 06:02:00,
2013-04-01 00:12:00,49.0,26.0,30.00,NNW,347,4.0,10.0,40,0.00,,,0.00,,2013-04-01 06:12:00,
2013-04-01 00:22:00,48.0,25.0,30.01,North,355,4.0,9.0,40,0.00,,,0.00,,2013-04-01 06:22:00,
2013-04-01 00:33:00,47.0,25.0,30.01,North,350,3.0,9.0,41,0.00,,,0.00,,2013-04-01 06:33:00,
2013-04-01 00:43:00,47.0,25.0,30.01,North,350,3.0,9.0,41,0.00,,,0.00,,2013-04-01 06:43:00,
2013-04-01 00:52:00,47.0,26.0,30.02,North,355,3.0,7.0,43,0.00,,,0.00,,2013-04-01 06:52:00,
2013-04-01 01:02:00,46.0,25.0,30.03,North,360,1.0,6.0,44,0.00,,,0.00,,2013-04-01 07:02:00,
2013-04-01 01:12:00,46.0,25.0,30.03,North,360,1.0,6.0,44,0.00,,,0.00,,2013-04-01 07:12:00,
2013-04-01 01:22:00,45.0,25.0,30.03,North,349,4.0,6.0,46,0.00,,,0.00,,2013-04-01 07:22:00,
2013-04-01 01:32:00,44.0,26.0,30.03,North,355,3.0,8.0,48,0.00,,,0.00,,2013-04-01 07:32:00,
2013-04-01 01:42:00,44.0,26.0,30.03,North,355,3.0,8.0,48,0.00,,,0.00,,2013-04-01 07:42:00,
2013-04-01 01:52:00,43.0,26.0,30.03,North,350,4.0,8.0,50,0.00,,,0.00,,2013-04-01 07:52:00,
2013-04-01 02:03:00,43.0,27.0,30.03,North,360,3.0,8.0,52,0.00,,,0.00,,2013-04-01 08:03:00,
2013-04-01 02:12:00,43.0,27.0,30.03,North,360,3.0,8.0,52,0.00,,,0.00,,2013-04-01 08:12:00,
2013-04-01 02:22:00,42.0,27.0,30.03,NNE,17,2.0,7.0,54,0.00,,,0.00,,2013-04-01 08:22:00,
2013-04-01 02:32:00,41.0,27.0,30.03,NNE,28,2.0,5.0,56,0.00,,,0.00,,2013-04-01 08:32:00,
2013-04-01 02:43:00,41.0,27.0,30.03,NNE,28,2.0,5.0,56,0.00,,,0.00,,2013-04-01 08:43:00,
2013-04-01 02:52:00,40.0,27.0,30.03,NNE,19,1.0,6.0,59,0.00,,,0.00,,2013-04-01 08:52:00,
2013-04-01 03:02:00,39.0,27.0,30.02,NNE,22,0.0,3.0,62,0.00,,,0.00,,2013-04-01 09:02:00,
2013-04-01 03:12:00,39.0,27.0,30.02,NNE,22,0.0,3.0,62,0.00,,,0.00,,2013-04-01 09:12:00,
2013-04-01 03:22:00,38.0,27.0,30.02,NNE,13,1.0,3.0,64,0.00,,,0.00,,2013-04-01 09:22:00,
2013-04-01 03:33:00,38.0,28.0,30.02,NNE,13,0.0,0.0,66,0.00,,,0.00,,2013-04-01 09:33:00,
2013-04-01 03:42:00,38.0,28.0,30.02,NNE,13,0.0,0.0,66,0.00,,,0.00,,2013-04-01 09:42:00,
2013-04-01 03:53:00,37.0,27.0,30.01,ENE,59,0.0,0.0,67,0.00,,,0.00,,2013-04-01 09:53:00,
2013-04-01 04:03:00,37.0,27.0,30.01,East,96,0.0,2.0,68,0.00,,,0.00,,2013-04-01 10:03:00,
2013-04-01 04:12:00,37.0,27.0,30.01,East,96,0.0,2.0,68,0.00,,,0.00,,2013-04-01 10:12:00,
2013-04-01 04:23:00,36.0,27.0,30.01,East,96,0.0,0.0,69,0.00,,,0.00,,2013-04-01 10:23:00,
2013-04-01 04:33:00,36.0,28.0,30.01,East,96,0.0,1.0,71,0.00,,,0.00,,2013-04-01 10:33:00,
2013-04-01 04:42:00,36.0,28.0,30.01,East,96,0.0,1.0,71,0.00,,,0.00,,2013-04-01 10:42:00,
2013-04-01 04:53:00,35.0,27.0,30.00,East,96,0.0,1.0,72,0.00,,,0.00,,2013-04-01 10:53:00,
2013-04-01 05:03:00,36.0,28.0,30.00,ESE,112,0.0,3.0,72,0.00,,,0.00,,2013-04-01 11:03:00,
2013-04-01 05:13:00,36.0,28.0,30.00,ESE,112,0.0,3.0,72,0.00,,,0.00,,2013-04-01 11:13:00,
2013-04-01 05:23:00,35.0,27.0,29.99,ESE,111,0.0,2.0,72,0.00,,,0.00,,2013-04-01 11:23:00,
2013-04-01 05:33:00,35.0,28.0,30.00,ESE,109,0.0,0.0,74,0.00,,,0.00,,2013-04-01 11:33:00,
2013-04-01 05:42:00,35.0,28.0,30.00,ESE,109,0.0,0.0,74,0.00,,,0.00,,2013-04-01 11:42:00,
2013-04-01 05:52:00,34.0,27.0,30.01,ESE,102,1.0,3.0,75,0.00,,,0.00,,2013-04-01 11:52:00,
2013-04-01 06:02:00,34.0,28.0,30.00,East,98,0.0,3.0,77,0.00,,,0.00,,2013-04-01 12:02:00,
2013-04-01 06:12:00,34.0,28.0,30.00,East,98,0.0,3.0,77,0.00,,,0.00,,2013-04-01 12:12:00,
2013-04-01 06:23:00,34.0,28.0,30.00,ESE,105,0.0,3.0,78,0.00,,,0.00,,2013-04-01 12:23:00,
2013-04-01 06:32:00,34.0,28.0,30.00,ESE,111,0.0,2.0,78,0.00,,,0.00,,2013-04-01 12:32:00,
2013-04-01 06:42:00,34.0,28.0,30.00,ESE,111,0.0,2.0,78,0.00,,,0.00,,2013-04-01 12:42:00,
2013-04-01 06:52:00,34.0,28.0,30.01,ESE,111,0.0,0.0,79,0.00,,,0.00,,2013-04-01 12:52:00,
2013-04-01 07:02:00,33.0,27.0,30.01,ESE,111,0.0,0.0,79,0.00,,,0.00,,2013-04-01 13:02:00,
2013-04-01 07:12:00,33.0,27.0,30.01,ESE,111,0.0,0.0,79,0.00,,,0.00,,2013-04-01 13:12:00,
2013-04-01 07:22:00,33.0,27.0,30.01,ESE,111,0.0,0.0,79,0.00,,,0.00,,2013-04-01 13:22:00,
2013-04-01 07:32:00,33.0,28.0,30.01,North,355,0.0,2.0,80,0.00,,,0.00,,2013-04-01 13:32:00,
2013-04-01 07:42:00,33.0,28.0,30.01,North,355,0.0,2.0,80,0.00,,,0.00,,2013-04-01 13:42:00,
2013-04-01 07:52:00,33.0,28.0,30.01,NNE,12,1.0,4.0,81,0.00,,,0.00,,2013-04-01 13:52:00,
2013-04-01 08:03:00,33.0,28.0,30.02,North,355,0.0,4.0,80,0.00,,,0.00,,2013-04-01 14:03:00,
2013-04-01 08:12:00,33.0,28.0,30.02,North,355,0.0,4.0,80,0.00,,,0.00,,2013-04-01 14:12:00,
2013-04-01 08:22:00,34.0,28.0,30.02,North,355,1.0,5.0,79,0.00,,,0.00,,2013-04-01 14:22:00,
2013-04-01 08:33:00,34.0,28.0,30.02,NNW,347,1.0,4.0,80,0.00,,,0.00,,2013-04-01 14:33:00,
2013-04-01 08:42:00,34.0,28.0,30.02,NNW,347,1.0,4.0,80,0.00,,,0.00,,2013-04-01 14:42:00,
2013-04-01 08:52:00,34.0,28.0,30.02,NNW,347,1.0,4.0,80,0.00,,,0.00,,2013-04-01 14:52:00,
2013-04-01 09:03:00,37.0,29.0,30.02,North,350,0.0,4.0,73,0.00,,,0.00,,2013-04-01 15:03:00,
2013-04-01 09:13:00,37.0,29.0,30.02,North,350,0.0,4.0,73,0.00,,,0.00,,2013-04-01 15:13:00,
2013-04-01 09:22:00,37.0,29.0,30.02,North,350,0.0,4.0,73,0.00,,,0.00,,2013-04-01 15:22:00,
2013-04-01 09:34:00,37.0,29.0,30.01,NNW,336,2.0,6.0,73,0.00,,,0.00,,2013-04-01 15:34:00,
2013-04-01 09:43:00,37.0,29.0,30.01,NNW,336,2.0,6.0,73,0.00,,,0.00,,2013-04-01 15:43:00,
2013-04-01 09:54:00,38.0,29.0,30.00,NW,321,3.0,10.0,70,0.00,,,0.00,,2013-04-01 15:54:00,
2013-04-01 10:03:00,39.0,30.0,30.00,NNW,341,3.0,8.0,69,0.00,,,0.00,,2013-04-01 16:03:00,
2013-04-01 10:13:00,39.0,30.0,30.00,NNW,341,3.0,8.0,69,0.00,,,0.00,,2013-04-01 16:13:00,
2013-04-01 10:23:00,40.0,30.0,29.99,NNE,16,4.0,9.0,68,0.00,,,0.00,,2013-04-01 16:23:00,
2013-04-01 10:33:00,40.0,30.0,29.99,North,349,6.0,10.0,67,0.00,,,0.00,,2013-04-01 16:33:00,
2013-04-01 10:42:00,40.0,30.0,29.99,North,349,6.0,10.0,67,0.00,,,0.00,,2013-04-01 16:42:00,
2013-04-01 10:53:00,40.0,30.0,29.98,North,355,5.0,11.0,68,0.00,,,0.00,,2013-04-01 16:53:00,
2013-04-01 11:03:00,41.0,31.0,29.98,NNW,329,5.0,11.0,66,0.00,,,0.00,,2013-04-01 17:03:00,
2013-04-01 11:12:00,41.0,31.0,29.98,NNW,329,5.0,11.0,66,0.00,,,0.00,,2013-04-01 17:12:00,
2013-04-01 11:22:00,44.0,31.0,29.98,NNW,336,3.0,8.0,61,0.00,,,0.00,,2013-04-01 17:22:00,
2013-04-01 11:32:00,44.0,31.0,29.98,NNW,336,3.0,8.0,61,0.00,,,0.00,,2013-04-01 17:32:00,
2013-04-01 11:42:00,44.0,31.0,29.98,NNW,336,3.0,8.0,61,0.00,,,0.00,,2013-04-01 17:42:00,
2013-04-01 11:52:00,46.0,31.0,29.96,NW,305,5.0,10.0,55,0.00,,,0.00,,2013-04-01 17:52:00,
2013-04-01 12:03:00,46.0,31.0,29.96,North,9,6.0,11.0,55,0.00,,,0.00,,2013-04-01 18:03:00,
2013-04-01 12:12:00,46.0,31.0,29.96,North,9,6.0,11.0,55,0.00,,,0.00,,2013-04-01 18:12:00,
2013-04-01 12:22:00,46.0,31.0,29.96,NNW,329,3.0,11.0,56,0.00,,,0.00,,2013-04-01 18:22:00,
2013-04-01 12:32:00,46.0,32.0,29.96,NNW,328,3.0,10.0,57,0.00,,,0.00,,2013-04-01 18:32:00,
2013-04-01 12:42:00,46.0,32.0,29.96,NNW,328,3.0,10.0,57,0.00,,,0.00,,2013-04-01 18:42:00,
2013-04-01 12:52:00,47.0,33.0,29.96,NW,314,3.0,10.0,57,0.00,,,0.00,,2013-04-01 18:52:00,
2013-04-01 13:03:00,47.0,33.0,29.95,WNW,296,4.0,11.0,58,0.00,,,0.00,,2013-04-01 19:03:00,
2013-04-01 13:12:00,47.0,33.0,29.95,WNW,296,4.0,11.0,58,0.00,,,0.00,,2013-04-01 19:12:00,
2013-04-01 13:23:00,48.0,34.0,29.94,NW,323,6.0,13.0,57,0.00,,,0.00,,2013-04-01 19:23:00,
2013-04-01 13:32:00,49.0,34.0,29.94,WNW,296,2.0,11.0,56,0.00,,,0.00,,2013-04-01 19:32:00,
2013-04-01 13:42:00,49.0,34.0,29.94,WNW,296,2.0,11.0,56,0.00,,,0.00,,2013-04-01 19:42:00,
2013-04-01 13:53:00,50.0,33.0,29.93,NW,311,6.0,11.0,51,0.00,,,0.00,,2013-04-01 19:53:00,
2013-04-01 14:02:00,51.0,34.0,29.93,WNW,300,5.0,14.0,51,0.00,,,0.00,,2013-04-01 20:02:00,
2013-04-01 14:12:00,51.0,34.0,29.93,WNW,300,5.0,14.0,51,0.00,,,0.00,,2013-04-01 20:12:00,
2013-04-01 14:22:00,51.0,34.0,29.93,NNW,336,5.0,11.0,51,0.00,,,0.00,,2013-04-01 20:22:00,
2013-04-01 14:32:00,50.0,33.0,29.93,NNW,331,4.0,11.0,52,0.00,,,0.00,,2013-04-01 20:32:00,
2013-04-01 14:42:00,50.0,33.0,29.93,NNW,331,4.0,11.0,52,0.00,,,0.00,,2013-04-01 20:42:00,
2013-04-01 14:52:00,51.0,34.0,29.91,North,5,6.0,12.0,52,0.00,,,0.00,,2013-04-01 20:52:00,
2013-04-01 15:02:00,53.0,34.0,29.91,NW,309,5.0,12.0,49,0.00,,,0.00,,2013-04-01 21:02:00,
2013-04-01 15:12:00,53.0,34.0,29.91,NW,309,5.0,12.0,49,0.00,,,0.00,,2013-04-01 21:12:00,
2013-04-01 15:22:00,54.0,33.0,29.90,NNW,346,6.0,15.0,45,0.00,,,0.00,,2013-04-01 21:22:00,
2013-04-01 15:32:00,54.0,33.0,29.91,West,259,5.0,10.0,45,0.00,,,0.00,,2013-04-01 21:32:00,
2013-04-01 15:43:00,54.0,33.0,29.91,West,259,5.0,10.0,45,0.00,,,0.00,,2013-04-01 21:43:00,
2013-04-01 15:52:00,54.0,33.0,29.91,NNW,345,4.0,8.0,45,0.00,,,0.00,,2013-04-01 21:52:00,
2013-04-01 16:02:00,54.0,34.0,29.91,WNW,290,3.0,12.0,46,0.00,,,0.00,,2013-04-01 22:02:00,
2013-04-01 16:12:00,54.0,34.0,29.91,WNW,290,3.0,12.0,46,0.00,,,0.00,,2013-04-01 22:12:00,
2013-04-01 16:22:00,54.0,33.0,29.90,NW,310,3.0,11.0,45,0.00,,,0.00,,2013-04-01 22:22:00,
2013-04-01 16:33:00,52.0,32.0,29.91,West,260,7.0,14.0,46,0.00,,,0.00,,2013-04-01 22:33:00,
2013-04-01 16:43:00,52.0,32.0,29.91,West,260,7.0,14.0,46,0.00,,,0.00,,2013-04-01 22:43:00,
2013-04-01 16:52:00,51.0,32.0,29.90,NNW,333,5.0,12.0,48,0.00,,,0.00,,2013-04-01 22:52:00,
2013-04-01 17:02:00,52.0,33.0,29.90,NNW,337,5.0,15.0,48,0.00,,,0.00,,2013-04-01 23:02:00,
2013-04-01 17:12:00,52.0,33.0,29.90,NNW,337,5.0,15.0,48,0.00,,,0.00,,2013-04-01 23:12:00,
2013-04-01 17:23:00,52.0,32.0,29.90,NNW,338,7.0,13.0,47,0.00,,,0.00,,2013-04-01 23:23:00,
2013-04-01 17:32:00,52.0,33.0,29.90,NNW,348,10.0,22.0,48,0.00,,,0.00,,2013-04-01 23:32:00,
2013-04-01 17:42:00,52.0,33.0,29.90,NNW,348,10.0,22.0,48,0.00,,,0.00,,2013-04-01 23:42:00,
2013-04-01 17:52:00,52.0,33.0,29.90,NW,319,7.0,16.0,49,0.00,,,0.00,,2013-04-01 23:52:00,
2013-04-01 18:03:00,52.0,33.0,29.91,NW,324,7.0,17.0,49,0.00,,,0.00,,2013-04-02 00:03:00,
2013-04-01 18:12:00,52.0,33.0,29.91,NW,324,7.0,17.0,49,0.00,,,0.00,,2013-04-02 00:12:00,
2013-04-01 18:22:00,50.0,33.0,29.91,NW,318,5.0,13.0,51,0.00,,,0.00,,2013-04-02 00:22:00,
2013-04-01 18:33:00,50.0,34.0,29.91,NW,311,6.0,12.0,53,0.00,,,0.00,,2013-04-02 00:33:00,
2013-04-01 18:42:00,50.0,34.0,29.91,NW,311,6.0,12.0,53,0.00,,,0.00,,2013-04-02 00:42:00,
2013-04-01 18:52:00,49.0,33.0,29.90,NW,313,5.0,11.0,53,0.00,,,0.00,,2013-04-02 00:52:00,
2013-04-01 19:02:00,50.0,32.0,29.91,NW,308,9.0,20.0,50,0.00,,,0.00,,2013-04-02 01:02:00,
2013-04-01 19:12:00,50.0,32.0,29.91,NW,308,9.0,20.0,50,0.00,,,0.00,,2013-04-02 01:12:00,
2013-04-01 19:22:00,49.0,32.0,29.92,North,5,11.0,17.0,51,0.00,,,0.00,,2013-04-02 01:22:00,
2013-04-01 19:32:00,48.0,32.0,29.93,North,5,8.0,19.0,53,0.00,,,0.00,,2013-04-02 01:32:00,
2013-04-01 19:42:00,48.0,32.0,29.93,North,5,8.0,19.0,53,0.00,,,0.00,,2013-04-02 01:42:00,
2013-04-01 19:52:00,46.0,31.0,29.95,NNW,347,11.0,17.0,55,0.00,,,0.00,,2013-04-02 01:52:00,
2013-04-01 20:02:00,45.0,31.0,29.96,NNE,20,10.0,16.0,57,0.00,,,0.00,,2013-04-02 02:02:00,
2013-04-01 20:12:00,45.0,31.0,29.96,NNE,20,10.0,16.0,57,0.00,,,0.00,,2013-04-02 02:12:00,
2013-04-01 20:22:00,44.0,31.0,29.98,NNW,346,9.0,16.0,59,0.00,,,0.00,,2013-04-02 02:22:00,
2013-04-01 20:32:00,43.0,30.0,29.98,NE,47,11.0,17.0,60,0.00,,,0.00,,2013-04-02 02:32:00,
2013-04-01 20:42:00,43.0,30.0,29.98,NE,47,11.0,17.0,60,0.00,,,0.00,,2013-04-02 02:42:00,
2013-04-01 20:52:00,42.0,31.0,29.99,North,355,8.0,16.0,64,0.00,,,0.00,,2013-04-02 02:52:00,
2013-04-01 21:02:00,42.0,32.0,30.01,North,11,5.0,16.0,68,0.00,,,0.00,,2013-04-02 03:02:00,
2013-04-01 21:12:00,42.0,32.0,30.01,North,11,5.0,16.0,68,0.00,,,0.00,,2013-04-02 03:12:00,
2013-04-01 21:22:00,41.0,32.0,30.02,NNW,342,4.0,10.0,69,0.00,,,0.00,,2013-04-02 03:22:00,
2013-04-01 21:33:00,41.0,31.0,30.02,NNE,22,6.0,11.0,68,0.00,,,0.00,,2013-04-02 03:33:00,
2013-04-01 21:43:00,41.0,31.0,30.02,NNE,22,6.0,11.0,68,0.00,,,0.00,,2013-04-02 03:43:00,
2013-04-01 21:53:00,41.0,32.0,30.02,North,5,4.0,10.0,69,0.00,,,0.00,,2013-04-02 03:53:00,
2013-04-01 22:03:00,41.0,32.0,30.03,NNW,337,3.0,10.0,69,0.00,,,0.00,,2013-04-02 04:03:00,
2013-04-01 22:13:00,41.0,32.0,30.03,NNW,337,3.0,10.0,69,0.00,,,0.00,,2013-04-02 04:13:00,
2013-04-01 22:23:00,41.0,32.0,30.04,NNW,342,4.0,8.0,69,0.00,,,0.00,,2013-04-02 04:23:00,
2013-04-01 22:32:00,41.0,32.0,30.04,NNW,345,2.0,6.0,69,0.00,,,0.00,,2013-04-02 04:32:00,
2013-04-01 22:43:00,41.0,32.0,30.04,NNW,345,2.0,6.0,69,0.00,,,0.00,,2013-04-02 04:43:00,
2013-04-01 22:52:00,41.0,32.0,30.05,NNW,338,2.0,5.0,69,0.00,,,0.00,,2013-04-02 04:52:00,
2013-04-01 23:02:00,41.0,32.0,30.05,North,355,3.0,8.0,69,0.00,,,0.00,,2013-04-02 05:02:00,
2013-04-01 23:12:00,41.0,32.0,30.05,North,355,3.0,8.0,69,0.00,,,0.00,,2013-04-02 05:12:00,
2013-04-01 23:22:00,40.0,31.0,30.05,NNW,338,1.0,7.0,69,0.00,,,0.00,,2013-04-02 05:22:00,
2013-04-01 23:32:00,40.0,32.0,30.05,North,350,2.0,9.0,72,0.00,,,0.00,,2013-04-02 05:32:00,
2013-04-01 23:42:00,40.0,32.0,30.05,North,350,2.0,9.0,72,0.00,,,0.00,,2013-04-02 05:42:00,
2013-04-01 23:52:00,40.0,33.0,30.05,NNW,348,0.0,4.0,76,0.00,,,0.00,,2013-04-02 05:52:00,